{"data":{"norad_id":53943,"epoch":"2026-09-20T19:50:39.591168Z","epoch_age_seconds":124390,"freshness":"FRESH","line1":"1 53943U 22120A   26263.82684712  .00006361  00000+0  25020-3 0  9995","line2":"2 53943  34.9911  42.0099 0004294 135.6867 224.4192 15.24965050221918","mean_motion":15.2496505,"eccentricity":0.0004294,"inclination_deg":34.9911,"raan_deg":42.0099,"arg_perigee_deg":135.6867,"mean_anomaly_deg":224.4192,"bstar":0.0002502,"rev_number":22191,"period_min":94.428393621218,"perigee_km":487.94082353109,"apogee_km":493.83994424837,"semimajor_km":6869.0273838897,"source":"CELESTRAK","updated_at":"2026-09-21T09:00:09.273009Z"}}